{"data":{"norad_id":50322,"intl_designator":"2021-129B","name":"SHIYAN-12 02 (SY-12 02)","alt_names":[],"object_type":"PAYLOAD","status":"ACTIVE","operator":null,"country":"PRC","launch_date":"2021-12-23","launch_site_code":"WSC","launch_vehicle":null,"mission":null,"orbit_class":"UNKNOWN","rcs_meters":null,"size_class":null,"mass_kg":null,"dimensions":null,"purposes":["comms"],"wikipedia_slug":null,"has_3d_model":false,"image_url":null,"decayed_at":null,"tle_current":{"epoch":"2026-09-19T19:40:22.492128Z","epoch_age_seconds":80695,"freshness":"FRESH","line1":"1 50322U 21129B   26262.81970477 -.00000120  00000+0  00000+0 0  9990","line2":"2 50322   3.9098  78.5634 0004061  95.9310 274.7467  1.00441696 17459","mean_motion":1.00441696,"eccentricity":0.0004061,"inclination_deg":3.9098,"raan_deg":78.5634,"arg_perigee_deg":95.931,"mean_anomaly_deg":274.7467,"bstar":0,"rev_number":1745,"period_min":1433.6675477881,"perigee_km":35721.926118159,"apogee_km":35756.133681114,"semimajor_km":42117.166899637,"source":"CELESTRAK","updated_at":"2026-09-20T09:00:35.302828Z"}}}